EDT,Max TemperatureF,Mean TemperatureF,Min TemperatureF,Max Dew PointF,MeanDew PointF,Min DewpointF,Max Humidity, Mean Humidity, Min Humidity, Max Sea Level PressureIn, Mean Sea Level PressureIn, Min Sea Level PressureIn, Max VisibilityMiles, Mean VisibilityMiles, Min VisibilityMiles, Max Wind SpeedMPH, Mean Wind SpeedMPH, Max Gust SpeedMPH,PrecipitationIn, CloudCover, Events, WindDirDegrees
2013-6-1,79,74,68,68,66,64,90,76,62,29.95,29.86,29.78,10,10,9,24,14,35,T,6,Rain-Thunderstorm,201
2013-6-2,75,67,59,64,60,55,93,77,61,29.96,29.87,29.80,10,10,10,20,11,24,0.00,6,,264
2013-6-3,67,59,51,53,49,46,89,69,48,30.09,30.03,29.97,10,10,10,17,6,21,0.00,5,,10
2013-6-4,75,62,48,49,46,43,93,64,35,30.18,30.13,30.09,10,10,9,16,6,20,0.00,2,,74
2013-6-5,81,68,54,58,51,45,77,58,39,30.12,30.01,29.88,10,10,10,15,6,18,0.00,5,,72
2013-6-6,68,64,59,63,59,52,93,76,58,29.89,29.84,29.81,10,6,2,14,6,17,0.25,7,Rain,28
2013-6-7,73,65,56,57,55,53,100,77,53,29.92,29.86,29.83,9,6,3,15,9,18,0.00,6,,39
2013-6-8,74,64,54,58,54,51,93,73,53,30.06,29.99,29.90,10,8,3,13,4,14,0.00,6,,111
2013-6-9,82,73,64,65,61,58,87,66,45,30.08,30.01,29.91,10,9,7,16,9,20,T,7,Rain,156
2013-6-10,79,72,65,66,64,60,100,79,58,29.91,29.84,29.79,10,8,4,20,10,23,0.27,7,Rain,193
2013-6-11,85,74,62,66,63,60,100,72,44,29.97,29.92,29.85,10,9,4,20,9,24,0.02,3,Rain-Thunderstorm,260
2013-6-12,90,79,68,73,69,65,90,71,52,29.93,29.85,29.70,10,10,7,21,8,37,0.00,5,,216
2013-6-13,81,72,63,71,62,53,90,66,42,29.94,29.75,29.60,10,8,1,30,12,37,1.55,6,Rain-Thunderstorm,327
2013-6-14,78,68,57,58,56,54,93,70,46,30.07,30.02,29.94,10,10,10,15,7,17,0.00,2,,348
2013-6-15,81,70,59,62,58,55,87,66,45,30.13,30.05,29.96,10,10,9,14,6,17,0.00,5,,189
2013-6-16,78,73,67,67,64,61,93,79,64,30.00,29.97,29.94,10,10,7,21,12,25,0.08,6,Rain,233
2013-6-17,86,77,67,70,66,60,93,69,44,30.01,29.96,29.90,10,7,2,12,4,15,0.00,7,,250
2013-6-18,83,72,61,67,62,56,87,68,49,30.02,29.91,29.86,10,10,9,20,10,23,0.00,5,,343
2013-6-19,78,68,57,56,52,47,87,60,32,30.14,30.09,30.03,10,10,10,12,5,20,0.00,0,,48
2013-6-20,85,71,57,59,54,46,75,56,37,30.22,30.18,30.14,10,10,10,9,5,10,0.00,2,,142
2013-6-21,86,74,62,63,59,56,78,58,37,30.23,30.18,30.11,10,10,6,13,5,20,0.00,2,,185
2013-6-22,87,79,70,72,68,63,84,72,59,30.18,30.13,30.06,10,9,1,22,7,26,0.27,4,Rain-Thunderstorm,202
2013-6-23,88,78,67,69,66,64,93,70,46,30.15,30.10,30.04,10,8,2,32,7,43,0.12,4,Rain-Thunderstorm,204
2013-6-24,85,76,67,70,67,65,90,73,55,30.15,30.09,30.03,10,8,5,20,9,23,T,4,,213
2013-6-25,90,80,69,73,70,67,90,73,55,30.05,29.98,29.88,10,8,3,20,11,25,T,3,Rain-Thunderstorm,230
2013-6-26,83,76,69,72,68,65,93,79,64,29.95,29.87,29.78,10,9,2,28,9,39,0.26,7,Rain-Thunderstorm,217
2013-6-27,86,78,69,70,68,66,97,77,57,29.80,29.76,29.68,10,6,1,18,9,25,0.17,7,Rain,258
2013-6-28,84,74,64,72,65,58,93,69,44,29.73,29.64,29.60,10,9,6,31,12,39,0.04,4,Rain-Thunderstorm,274
2013-6-29,77,69,60,66,63,60,93,79,64,29.68,29.62,29.58,10,8,2,14,5,18,0.07,6,Rain-Thunderstorm,259
2013-6-30,78,71,64,66,64,61,100,84,68,29.89,29.77,29.68,10,10,7,20,9,24,0.02,7,Rain-Thunderstorm,41